FW5754 Weather Reports


time (UTC)temp
F
wind
direction
speed
knots
gust
knots
rain 1hr
in
rain 24hr
in
rain mn
in
humidity
%
barometer
mb
20260504235534 54 132 5.2 20.0 0.00 0.00 0.00 76 1010.8
20260504235034 54 121 5.2 20.0 0.00 0.00 0.00 76 1010.7
20260504234545 54 173 5.2 14.8 0.00 0.00 0.00 76 1010.6
20260504234034 -61 133 5.2 14.8 0.00 0.00 0.00 76 1010.7
20260504233534 55 192 5.2 14.8 0.00 0.00 0.00 77 1010.6
20260504233040 55 191 6.1 14.8 0.00 0.00 0.00 77 1010.6
20260504232534 55 180 4.3 17.4 0.00 0.00 0.00 77 1010.6
20260504232033 55 184 5.2 17.4 0.00 0.00 0.00 78 1010.6
20260504231539 56 227 6.1 16.5 0.00 0.00 0.00 78 1010.5
20260504231033 56 187 7.0 16.5 0.00 0.00 0.00 77 1010.5
20260504230533 56 197 7.0 21.7 0.00 0.00 0.00 77 1010.4
20260504230039 56 211 7.8 21.7 0.00 0.00 0.00 77 1010.5
20260504225535 -56 177 6.1 18.2 0.00 0.00 0.00 76 1010.4
20260504225034 57 180 6.1 18.2 0.00 0.00 0.00 75 1010.6
20260504224545 57 175 7.0 14.8 0.00 0.00 0.00 75 1010.6
20260504224034 -54 157 6.1 17.4 0.00 0.00 0.00 100 1010.7
20260504223534 -54 244 7.0 18.2 0.00 0.00 0.00 1010.6
20260504223058 -54 188 6.1 19.1 0.00 0.00 0.00 1010.6
20260504222535 -54 188 6.1 20.9 0.00 0.00 0.00 1010.7
20260504222034 -54 189 5.2 20.9 0.00 0.00 0.00 100 1010.6
20260504221542 -54 188 4.3 21.7 0.00 0.00 0.00 1010.6
20260504221034 158 189 7.8 21.7 0.00 0.00 0.00 1010.6
20260504220534 -52 174 6.1 18.2 0.00 0.00 0.00 1010.7
20260504220042 -52 152 5.2 21.7 0.00 0.00 0.00 1010.7
20260504215531 -52 161 7.0 21.7 0.00 0.00 0.00 1010.7
20260504215034 -50 212 6.1 16.5 0.00 0.00 0.00 1010.7
20260504214539 -50 207 6.1 19.1 0.00 0.00 0.00 1010.7
20260504214033 -50 194 6.1 21.7 0.00 0.00 0.00 1010.7
20260504213530 -50 181 7.0 21.7 0.00 0.00 0.00 100 1010.7
20260504213046 -50 218 7.0 17.4 0.00 0.00 0.00 1010.8
20260504212531 -50 171 7.0 20.0 0.00 0.00 0.00 1010.8
20260504212031 -50 205 7.8 20.0 0.00 0.00 0.00 1010.7
20260504211624 -50 207 7.0 15.6 0.00 0.00 0.00 1010.8
20260504211031 -50 148 4.3 14.8 0.00 0.00 0.00 1010.7
20260504210534 -50 199 6.1 17.4 0.00 0.00 0.00 1010.8
20260504210045 -50 139 7.0 17.4 0.00 0.00 0.00 1010.8
20260504205534 -49 211 6.1 15.6 0.00 0.00 0.00 1010.7
20260504205032 -49 198 6.1 15.6 0.00 0.00 0.00 1010.7
20260504204542 -49 158 6.1 16.5 0.00 0.00 0.00 1010.8
20260504204031 -49 209 5.2 16.5 0.00 0.00 0.00 1010.7
20260504203531 -49 187 5.2 17.4 0.00 0.00 0.00 1010.6
20260504203042 -49 182 5.2 17.4 0.00 0.00 0.00 1010.6
20260504202534 -49 179 7.0 23.5 0.00 0.00 0.00 1010.5
20260504202033 -49 184 7.0 23.5 0.00 0.00 0.00 1010.6
20260504201552 -49 207 8.7 17.4 0.00 0.00 0.00 1010.7
20260504201030 -48 180 6.1 16.5 0.00 0.00 0.00 56 1010.7
20260504200530 64 193 6.1 16.5 0.00 0.00 0.00 56 1010.6
20260504200043 65 175 5.2 16.5 0.00 0.00 0.00 54 1010.8
20260504195533 65 200 6.1 15.6 0.00 0.00 0.00 53 1010.7
20260504195030 65 223 6.1 16.5 0.00 0.00 0.00 53 1010.7
20260504194549 65 184 7.0 21.7 0.00 0.00 0.00 53 1010.8
20260504194034 65 200 6.1 21.7 0.00 0.00 0.00 53 1010.9
20260504193534 65 221 6.1 18.2 0.00 0.00 0.00 54 1010.9
20260504193051 -48 246 8.7 18.2 0.00 0.00 0.00 1010.9
20260504192533 65 228 8.7 18.2 0.00 0.00 0.00 53 1010.8
20260504192033 -47 196 7.8 19.1 0.00 0.00 0.00 1010.9
20260504191542 65 189 7.8 19.1 0.00 0.00 0.00 1010.8
20260504191034 66 217 8.7 19.1 0.00 0.00 0.00 53 1010.9
20260504190531 66 198 6.1 18.2 0.00 0.00 0.00 52 1010.8
20260504190054 66 186 5.2 14.8 0.00 0.00 0.00 52 1011.0
20260504185532 158 183 3.5 18.2 0.00 0.00 0.00 52 1011.1
20260504185030 66 193 6.1 19.1 0.00 0.00 0.00 51 1011.1
20260504184547 66 202 7.0 22.6 0.00 0.00 0.00 52 1011.1
20260504184036 66 189 6.1 22.6 0.00 0.00 0.00 52 1011.1
20260504183534 66 196 4.3 14.8 0.00 0.00 0.00 51 1011.3
20260504183045 66 180 5.2 12.2 0.00 0.00 0.00 51 1011.3
20260504182530 66 198 5.2 12.2 0.00 0.00 0.00 51 1011.2
20260504182031 66 200 6.1 21.7 0.00 0.00 0.00 50 1011.3
20260504181539 65 210 6.1 21.7 0.00 0.00 0.00 51 1011.3
20260504181034 65 200 7.0 21.7 0.00 0.00 0.00 50 1011.2
20260504180534 65 191 8.7 20.0 0.00 0.00 0.00 51 1011.3
20260504180039 65 158 5.2 22.6 0.00 0.00 0.00 51 1011.3
20260504175533 65 202 7.8 22.6 0.00 0.00 0.00 51 1011.3
20260504175033 65 214 7.0 26.1 0.00 0.00 0.00 51 1011.3
20260504174549 65 192 7.0 26.9 0.00 0.00 0.00 50 1011.4
20260504174034 65 186 8.7 26.9 0.00 0.00 0.00 49 1011.5
20260504173533 66 150 7.8 16.5 0.00 0.00 0.00 49 1011.4
20260504173054 66 237 6.1 16.5 0.00 0.00 0.00 49 1011.4
20260504172533 66 191 4.3 16.5 0.00 0.00 0.00 51 1011.4
20260504172035 66 199 5.2 16.5 0.00 0.00 0.00 48 1011.4
20260504171547 66 177 6.1 15.6 0.00 0.00 0.00 49 1011.4
20260504171031 66 209 5.2 16.5 0.00 0.00 0.00 48 1011.6
20260504170531 65 191 7.0 16.5 0.00 0.00 0.00 49 1011.5
20260504151035 57 267 8.7 14.8 0.00 0.00 0.00 66 1013.1
20260504150533 59 290 9.6 19.1 0.00 0.00 0.00 62 1013.0
20260504141033 -50 217 8.7 15.6 0.00 0.00 0.00 1013.3
20260504140533 -50 263 7.0 15.6 0.00 0.00 0.00 1013.3
20260504130534 -50 264 6.1 13.0 0.00 0.00 0.00 1013.5
20260504110531 -66 230 2.6 11.3 0.00 0.00 0.00 1013.4
20260504100530 -70 226 3.5 10.4 0.00 0.00 0.00 1013.2
20260504081545 52 227 5.2 10.4 0.00 0.00 0.00 63 1012.8
20260504081032 52 226 3.5 10.4 0.00 0.00 0.00 63 1012.8
20260504080532 52 238 4.3 10.4 0.00 0.00 0.00 63 1012.9
20260504050531 -72 301 1.7 6.1 0.00 0.00 0.00 1012.2
20260504045530 -72 301 1.7 7.0 0.00 0.00 0.00 1012.2
20260504045032 -72 301 1.7 7.8 0.00 0.00 0.00 1012.3
20260504044534 49 301 1.7 7.8 0.00 0.00 0.00 55 1012.3
20260504044030 49 302 2.6 7.8 0.00 0.00 0.00 55 1012.4
20260504043535 50 304 2.6 7.8 0.00 0.00 0.00 100 1012.3
20260504043041 -70 306 1.7 7.0 0.00 0.00 0.00 1012.3
20260504042536 -70 306 1.7 7.0 0.00 0.00 0.00 1012.2
20260504042033 -70 306 1.7 5.2 0.00 0.00 0.00 1012.2
20260504041538 -70 306 2.6 6.1 0.00 0.00 0.00 1012.2
20260504041032 -72 306 1.7 6.1 0.00 0.00 0.00 1012.1
20260504040531 -72 306 1.7 4.3 0.00 0.00 0.00 1012.1
20260504040056 -70 306 0.9 4.3 0.00 0.00 0.00 1012.0
20260504035533 -70 306 1.7 5.2 0.00 0.00 0.00 1012.0
20260504035032 -70 306 1.7 6.1 0.00 0.00 0.00 1012.0
20260504034540 -70 0 2.6 7.0 0.00 0.00 0.00 1011.9
20260504034034 -70 306 1.7 7.0 0.00 0.00 0.00 1011.9
20260504033531 -70 306 2.6 7.0 0.00 0.00 0.00 1011.9
20260504033038 -70 306 1.7 6.1 0.00 0.00 0.00 1011.9
20260504032530 -70 306 0.9 6.1 0.00 0.00 0.00 1011.9
20260504032030 -70 306 1.7 7.0 0.00 0.00 0.00 1011.9
20260504031551 49 306 1.7 7.0 0.00 0.00 0.00 59 1011.9
20260504031034 49 306 2.6 7.0 0.00 0.00 0.00 60 1012.0
20260504030529 49 306 2.6 7.0 0.00 0.00 0.00 1011.9
20260504030042 -72 306 1.7 7.0 0.00 0.00 0.00 1011.9
20260504025533 -72 306 1.7 5.2 0.00 0.00 0.00 1011.8
20260504025032 -72 0 1.7 6.1 0.00 0.00 0.00 1011.9
20260504024539 -72 307 1.7 6.1 0.00 0.00 0.00 1011.8
20260504024030 -72 307 1.7 4.3 0.00 0.00 0.00 100 1011.8
20260504023532 -72 307 1.7 4.3 0.00 0.00 0.00 1011.9
20260504023039 -72 307 1.7 7.0 0.00 0.00 0.00 1011.8
20260504022533 -72 307 1.7 7.0 0.00 0.00 0.00 1011.8
20260504022030 49 307 2.6 7.0 0.00 0.00 0.00 1011.9
20260504021539 -72 307 2.6 6.1 0.00 0.00 0.00 1011.7
20260504021030 -72 307 0.9 6.1 0.00 0.00 0.00 100 1011.8
20260504020529 49 0 2.6 7.0 0.00 0.00 0.00 62 1011.8
20260504020038 49 307 2.6 7.0 0.00 0.00 0.00 62 1011.8
20260504015534 -72 308 2.6 7.8 0.00 0.00 0.00 62 1011.8
20260504015030 49 308 1.7 7.8 0.00 0.00 0.00 63 1011.7
20260504014541 49 309 3.5 7.8 0.00 0.00 0.00 63 1011.7
20260504014031 49 311 2.6 5.2 0.00 0.00 0.00 64 1011.6
20260504013530 49 311 2.6 7.0 0.00 0.00 0.00 65 1011.5
20260504013046 48 312 2.6 7.0 0.00 0.00 0.00 66 1011.4
20260504012530 48 313 2.6 7.0 0.00 0.00 0.00 66 1011.4
20260504012030 48 313 2.6 7.0 0.00 0.00 0.00 68 1011.4
20260504011541 47 313 1.7 5.2 0.00 0.00 0.00 70 1011.3
20260504011031 47 313 1.7 5.2 0.00 0.00 0.00 71 1011.1
20260504010532 47 313 1.7 5.2 0.00 0.00 0.00 71 1011.1
20260504010040 47 313 1.7 5.2 0.00 0.00 0.00 71 1011.0
20260504005532 47 313 2.6 5.2 0.00 0.00 0.00 74 1011.1
20260504005031 46 313 1.7 5.2 0.00 0.00 0.00 76 1011.0
20260504004540 46 313 1.7 5.2 0.00 0.00 0.00 77 1011.0
20260504004031 46 313 2.6 5.2 0.00 0.00 0.00 78 1011.1
20260504003533 46 315 0.9 4.3 0.00 0.00 0.00 78 1011.0
20260504003038 46 315 0.9 4.3 0.00 0.00 0.00 78 1010.9
20260504002534 46 315 0.9 2.6 0.00 0.00 0.00 77 1010.7
20260504002030 46 315 0.0 2.6 0.00 0.00 0.00 77 1010.7
20260504001550 47 315 0.9 2.6 0.00 0.00 0.00 77 1010.7
20260504001030 47 0 0.0 0.0 0.00 0.00 0.00 76 1010.6
20260504000530 48 0 0.0 0.9 0.00 0.00 0.00 75 1010.6
20260504000042 49 0 0.0 0.9 0.00 0.00 0.00 75 1010.6